Location: Munkebjergskolens Observatorium
(55.3864°N, 10.3987°E)
Time: 18:03:39
(UTC+01:00)

N. Korean satellite - Pass Details

Date: 06 December 2022
Orbit: 407 x 441 km, 97.3° (Epoch: 05 February)

Event Time Altitude Azimuth Distance (km) Brightness Sun altitude
Rises 04:37:45 0° 27° (NNE) 2,525 10.6 -31.3°
Reaches altitude 10° 04:40:32 10° 52° (NE) 1,635 9.9 -30.9°
Maximum altitude 04:42:38 15° 89° (E) 1,345 9.6 -30.6°
Drops below altitude 10° 04:44:43 10° 126° (SE) 1,613 9.8 -30.3°
Sets 04:47:26 0° 150° (SSE) 2,469 10.5 -29.9°
